Weather History for Lakeville, MN

Change the Weather History Date:

Friday, October 28, 2011

  Actual Average Record
Temperature  
Mean Temperature 40 °F -  
Max Temperature 51 °F 52 °F 76 °F (1948)
Min Temperature 28 °F 33 °F 17 °F (1967)
Degree Days  
Heating Degree Days 26    
Moisture  
Dew Point 26 °F    
Average Humidity 59    
Maximum Humidity 93    
Minimum Humidity 33    
Precipitation  
Precipitation 0.00 in - - ()
Sea Level Pressure  
Sea Level Pressure 30.03 in    
Wind  
Wind Speed 4 mph (West)    
Max Wind Speed 17 mph    
Max Gust Speed 23 mph    
Visibility 10 miles    
Events      
Averages and records for this station are not official NWS values.
T = Trace of Precipitation, MM = Missing Value Source: NWS Daily Summary

Daily Weather History Graph

Daily Weather History Graph

Search for Another Location

Airport:

Trip Planner

Search our weather history database for the weather conditions in past years. The results will help you decide how hot, cold, wet, or windy it might be!

Date:

Astronomy

Oct. 28, 2011 Rise Set
Actual Time 7:44 AM CDT 6:07 PM CDT
Civil Twilight 7:14 AM CDT 6:37 PM CDT
Nautical Twilight 6:40 AM CDT 7:12 PM CDT
Astronomical Twilight 6:06 AM CDT 7:45 PM CDT
Moon 10:08 AM CDT 7:23 PM CDT
Length of Visible Light 11h 23m
Length of Day
10h 22m
Waxing Crescent, 5% of the Moon is Illuminated
Oct 28
Waxing Crescent
Nov 2
First Quarter
Nov 10
Full
Nov 18
Last Quarter
Nov 25
New

Hourly Weather History & Observations

Time (CDT) Temp. Windchill Dew Point Humidity Pressure Visibility Wind Dir Wind Speed Gust Speed Precip Events Conditions
12:12 AM 28.4 °F - 24.8 °F 86% 30.08 in 10.0 mi Calm Calm - N/A   Clear
12:31 AM 28.4 °F - 26.6 °F 93% 30.08 in 10.0 mi Calm Calm - N/A   Clear
12:52 AM 30.2 °F - 26.6 °F 86% 30.08 in 10.0 mi Calm Calm - N/A   Clear
1:12 AM 30.2 °F - 26.6 °F 86% 30.07 in 10.0 mi Calm Calm - N/A   Clear
1:32 AM 30.2 °F - 26.6 °F 86% 30.07 in 10.0 mi Calm Calm - N/A   Clear
1:52 AM 30.2 °F - 26.6 °F 86% 30.07 in 10.0 mi Calm Calm - N/A   Clear
2:12 AM 33.8 °F 29.6 °F 26.6 °F 75% 30.07 in 10.0 mi South 4.6 mph - N/A   Scattered Clouds
2:32 AM 33.8 °F - 26.6 °F 75% 30.07 in 10.0 mi Calm Calm - N/A   Scattered Clouds
2:52 AM 33.8 °F 27.7 °F 26.6 °F 75% 30.07 in 10.0 mi South 6.9 mph - N/A   Mostly Cloudy
3:12 AM 35.6 °F 30.7 °F 26.6 °F 70% 30.06 in 10.0 mi South 5.8 mph - N/A   Scattered Clouds
3:32 AM 35.6 °F 32.8 °F 26.6 °F 70% 30.06 in 10.0 mi South 3.5 mph - N/A   Scattered Clouds
3:52 AM 35.6 °F - 24.8 °F 65% 30.06 in 10.0 mi Calm Calm - N/A   Scattered Clouds
4:12 AM 33.8 °F 29.6 °F 24.8 °F 70% 30.05 in 10.0 mi South 4.6 mph - N/A   Scattered Clouds
4:32 AM 35.6 °F 31.7 °F 24.8 °F 65% 30.05 in 10.0 mi South 4.6 mph - N/A   Scattered Clouds
4:52 AM 33.8 °F 29.6 °F 24.8 °F 70% 30.04 in 10.0 mi SSW 4.6 mph - N/A   Scattered Clouds
5:12 AM 33.8 °F 29.6 °F 24.8 °F 70% 30.04 in 10.0 mi South 4.6 mph - N/A   Scattered Clouds
5:32 AM 33.8 °F 30.8 °F 26.6 °F 75% 30.03 in 10.0 mi South 3.5 mph - N/A   Mostly Cloudy
5:52 AM 33.8 °F 30.8 °F 26.6 °F 75% 30.03 in 10.0 mi South 3.5 mph - N/A   Scattered Clouds
6:12 AM 33.8 °F 30.8 °F 26.6 °F 75% 30.03 in 10.0 mi South 3.5 mph - N/A   Mostly Cloudy
6:32 AM 35.6 °F - 24.8 °F 65% 30.02 in 10.0 mi Calm Calm - N/A   Overcast
6:52 AM 35.6 °F 32.8 °F 26.6 °F 70% 30.02 in 10.0 mi South 3.5 mph - N/A   Overcast
7:12 AM 37.4 °F 34.9 °F 26.6 °F 65% 30.02 in 10.0 mi SSW 3.5 mph - N/A   Overcast
7:32 AM 37.4 °F - 24.8 °F 60% 30.02 in 10.0 mi Calm Calm - N/A   Overcast
7:52 AM 35.6 °F - 24.8 °F 65% 30.02 in 10.0 mi Calm Calm - N/A   Overcast
8:12 AM 35.6 °F 32.8 °F 26.6 °F 70% 30.02 in 10.0 mi South 3.5 mph - N/A   Overcast
8:32 AM 35.6 °F - 26.6 °F 70% 30.02 in 10.0 mi Calm Calm - N/A   Overcast
8:52 AM 37.4 °F - 26.6 °F 65% 30.02 in 10.0 mi Calm Calm - N/A   Mostly Cloudy
9:12 AM 37.4 °F 33.8 °F 26.6 °F 65% 30.03 in 10.0 mi WSW 4.6 mph - N/A   Mostly Cloudy
9:32 AM 39.2 °F 34.2 °F 26.6 °F 61% 30.03 in 10.0 mi WSW 6.9 mph - N/A   Scattered Clouds
9:52 AM 41.0 °F 37.1 °F 26.6 °F 57% 30.03 in 10.0 mi West 5.8 mph - N/A   Scattered Clouds
10:13 AM 41.0 °F 36.4 °F 26.6 °F 57% 30.02 in 10.0 mi West 6.9 mph - N/A   Clear
10:32 AM 42.8 °F 38.0 °F 26.6 °F 53% 30.03 in 10.0 mi West 8.1 mph - N/A   Clear
10:52 AM 44.6 °F 39.7 °F 28.4 °F 53% 30.03 in 10.0 mi West 9.2 mph - N/A   Clear
11:12 AM 44.6 °F 40.7 °F 28.4 °F 53% 30.03 in 10.0 mi NW 6.9 mph - N/A   Clear
11:32 AM 46.4 °F 42.4 °F 30.2 °F 53% 30.03 in 10.0 mi NW 8.1 mph - N/A   Clear
12:32 PM 48.2 °F - 30.2 °F 50% 30.03 in 10.0 mi NNW 11.5 mph 16.1 mph N/A   Clear
12:52 PM 50.0 °F - 30.2 °F 47% 30.02 in 10.0 mi NNW 11.5 mph 16.1 mph N/A   Clear
1:12 PM 51.8 °F - 30.2 °F 44% 30.01 in 10.0 mi NNW 12.7 mph 16.1 mph N/A   Scattered Clouds
1:32 PM 50.0 °F - 30.2 °F 47% 30.02 in 10.0 mi NW 11.5 mph - N/A   Scattered Clouds
1:52 PM 51.8 °F - 30.2 °F 44% 30.01 in 10.0 mi NW 11.5 mph - N/A   Scattered Clouds
2:12 PM 51.8 °F - 28.4 °F 41% 30.00 in 10.0 mi WNW 16.1 mph 21.9 mph N/A   Mostly Cloudy
2:32 PM 51.8 °F - 24.8 °F 35% 30.00 in 10.0 mi West 12.7 mph - N/A   Scattered Clouds
2:52 PM 51.8 °F - 26.6 °F 38% 30.00 in 10.0 mi WNW 15.0 mph 20.7 mph N/A   Scattered Clouds
3:12 PM 51.8 °F - 24.8 °F 35% 30.00 in 10.0 mi WNW 11.5 mph 21.9 mph N/A   Scattered Clouds
3:32 PM 51.8 °F - 24.8 °F 35% 30.00 in 10.0 mi WNW 12.7 mph - N/A   Clear
3:52 PM 51.8 °F - 24.8 °F 35% 30.00 in 10.0 mi WNW 9.2 mph - N/A   Clear
4:12 PM 51.8 °F - 23.0 °F 33% 30.00 in 10.0 mi WNW 13.8 mph 21.9 mph N/A   Clear
4:32 PM 51.8 °F - 23.0 °F 33% 30.00 in 10.0 mi WNW 17.3 mph 20.7 mph N/A   Clear
4:52 PM 50.0 °F - 23.0 °F 35% 30.00 in 10.0 mi NW 15.0 mph 23.0 mph N/A   Clear
5:12 PM 48.2 °F - 23.0 °F 37% 30.00 in 10.0 mi WNW 11.5 mph 19.6 mph N/A   Clear
5:32 PM 48.2 °F - 23.0 °F 37% 30.00 in 10.0 mi WNW 8.1 mph - N/A   Clear
5:52 PM 46.4 °F 41.9 °F 24.8 °F 43% 30.00 in 10.0 mi WNW 9.2 mph - N/A   Clear
6:12 PM 44.6 °F 40.2 °F 24.8 °F 46% 30.01 in 10.0 mi West 8.1 mph - N/A   Clear
6:52 PM 41.0 °F 37.1 °F 23.0 °F 49% 30.02 in 10.0 mi WNW 5.8 mph - N/A   Clear
7:13 PM 39.2 °F 35.0 °F 24.8 °F 56% 30.03 in 10.0 mi WNW 5.8 mph - N/A   Clear
7:32 PM 39.2 °F 34.2 °F 24.8 °F 56% 30.03 in 10.0 mi WNW 6.9 mph - N/A   Clear
8:12 PM 39.2 °F 34.2 °F 24.8 °F 56% 30.03 in 10.0 mi West 6.9 mph - N/A   Clear
8:32 PM 39.2 °F 35.0 °F 24.8 °F 56% 30.04 in 10.0 mi West 5.8 mph - N/A   Clear
8:52 PM 37.4 °F 33.8 °F 24.8 °F 60% 30.03 in 10.0 mi West 4.6 mph - N/A   Clear
9:12 PM 37.4 °F 33.8 °F 24.8 °F 60% 30.03 in 10.0 mi West 4.6 mph - N/A   Clear
9:32 PM 39.2 °F 35.9 °F 24.8 °F 56% 30.03 in 10.0 mi West 4.6 mph - N/A   Clear
9:52 PM 37.4 °F 33.8 °F 24.8 °F 60% 30.03 in 10.0 mi West 4.6 mph - N/A   Clear
10:12 PM 37.4 °F 33.8 °F 24.8 °F 60% 30.03 in 10.0 mi West 4.6 mph - N/A   Clear
10:32 PM 37.4 °F 34.9 °F 24.8 °F 60% 30.03 in 10.0 mi West 3.5 mph - N/A   Clear
10:51 PM 35.6 °F 32.8 °F 24.8 °F 65% 30.03 in 10.0 mi WSW 3.5 mph - N/A   Clear
11:12 PM 33.8 °F 30.8 °F 24.8 °F 70% 30.03 in 10.0 mi WSW 3.5 mph - N/A   Clear
11:32 PM 30.2 °F 26.7 °F 24.8 °F 80% 30.03 in 10.0 mi WSW 3.5 mph - N/A   Clear
11:52 PM 32.0 °F - 24.8 °F 75% 30.03 in 10.0 mi Calm Calm - N/A   Clear